Weather History for Springfield, MO

Change the Weather History Date:

Friday, December 28, 2012

  Actual Average Record
Temperature  
Mean Temperature 32 °F 33 °F  
Max Temperature 36 °F 43 °F 75 °F (1928)
Min Temperature 27 °F 23 °F -5 °F (1924)
Degree Days  
Heating Degree Days 33 32  
Month to date heating degree days 627 836  
Since 1 July heating degree days 1544 1715  
Cooling Degree Days 0 0  
Month to date cooling degree days 2 0  
Year to date cooling degree days 1766 1389  
Moisture  
Dew Point 27 °F    
Average Humidity 85    
Maximum Humidity 100    
Minimum Humidity 70    
Precipitation  
Precipitation 0.01 in 0.08 in 0.63 in (1942)
Month to date precipitation 0.94 2.79  
Year to date precipitation 30.78 45.32  
Snow  
Snow 0.10 in - - ()
Month to date snowfall 0.1  
Since 1 July snowfall 0.1  
Snow Depth 0.00 in    
Sea Level Pressure  
Sea Level Pressure 29.96 in    
Wind  
Wind Speed 8 mph (SSW)    
Max Wind Speed 18 mph    
Max Gust Speed 22 mph    
Visibility 7 miles    
Events Snow    
T = Trace of Precipitation, MM = Missing Value Source: NWS Daily Summary

Daily Weather History Graph

Daily Weather History Graph

Search for Another Location

Airport:

Trip Planner

Search our weather history database for the weather conditions in past years. The results will help you decide how hot, cold, wet, or windy it might be!

Date:

Astronomy

Dec. 28, 2012 Rise Set
Actual Time 7:26 AM CST 5:04 PM CST
Civil Twilight 6:57 AM CST 5:33 PM CST
Nautical Twilight 6:25 AM CST 6:05 PM CST
Astronomical Twilight 5:53 AM CST 6:37 PM CST
Moon 5:40 PM CST (12/28) 7:22 AM CST (12/28)
Length of Visible Light 10h 35m
Length of Day
9h 37m
Full, 100% of the Moon is Illuminated
Dec 28
Full
Jan 4
Last Quarter
Jan 11
New
Jan 18
First Quarter
Jan 26
Full

Hourly Weather History & Observations

Time (CST) Temp. Windchill Dew Point Humidity Pressure Visibility Wind Dir Wind Speed Gust Speed Precip Events Conditions
12:52 AM 30.9 °F 21.2 °F 26.1 °F 82% 29.98 in 10.0 mi SSE 12.7 mph - N/A   Overcast
1:38 AM 30.9 °F 21.7 °F 26.1 °F 82% 29.95 in - SE 11.5 mph - N/A   Overcast
1:52 AM 30.9 °F 22.8 °F 26.1 °F 82% 29.99 in - SSE 9.2 mph - N/A   Overcast
2:20 AM 30.9 °F 22.8 °F 26.1 °F 82% 29.97 in 10.0 mi SSE 9.2 mph - N/A   Overcast
2:52 AM 30.0 °F 21.1 °F 27.0 °F 88% 30.00 in 10.0 mi SSE 10.4 mph - N/A   Overcast
3:09 AM 30.0 °F 21.7 °F 27.0 °F 88% 29.97 in 10.0 mi SSE 9.2 mph - N/A   Overcast
3:44 AM 30.0 °F 22.4 °F 27.0 °F 88% 29.96 in 10.0 mi SSE 8.1 mph - N/A   Overcast
3:52 AM 30.0 °F 22.4 °F 28.0 °F 92% 29.98 in 10.0 mi SSE 8.1 mph - N/A   Overcast
4:02 AM 30.0 °F 21.7 °F 28.0 °F 92% 29.96 in 10.0 mi SSE 9.2 mph - N/A   Overcast
4:12 AM 30.0 °F 21.7 °F 28.0 °F 92% 29.96 in 10.0 mi SSE 9.2 mph - N/A   Overcast
4:27 AM 30.0 °F 21.7 °F 28.0 °F 92% 29.95 in 10.0 mi SSE 9.2 mph - N/A   Overcast
4:44 AM 30.0 °F 23.2 °F 28.0 °F 92% 29.95 in 10.0 mi SSE 6.9 mph - N/A   Overcast
4:52 AM 30.0 °F 23.2 °F 28.0 °F 92% 29.97 in 10.0 mi SSE 6.9 mph - N/A   Overcast
5:42 AM 30.0 °F 26.5 °F 28.0 °F 92% 29.94 in 10.0 mi SSE 3.5 mph - N/A   Overcast
5:49 AM 30.2 °F 26.7 °F 28.4 °F 93% 29.94 in 10.0 mi SE 3.5 mph - N/A   Overcast
5:52 AM 30.0 °F 26.5 °F 28.0 °F 92% 29.97 in 10.0 mi SSE 3.5 mph - N/A   Overcast
6:44 AM 30.0 °F 26.5 °F 28.9 °F 96% 29.95 in - SSE 3.5 mph - N/A   Overcast
6:52 AM 30.0 °F 26.5 °F 28.9 °F 96% 29.99 in - South 3.5 mph - N/A   Overcast
7:21 AM 30.9 °F - 28.9 °F 92% 29.95 in 2.5 mi Calm Calm - N/A   Overcast
7:52 AM 30.9 °F 27.5 °F 28.9 °F 92% 29.98 in 2.5 mi East 3.5 mph - N/A   Overcast
8:05 AM 30.9 °F - 30.0 °F 96% 29.94 in 1.0 mi Calm Calm - N/A   Overcast
8:52 AM 30.9 °F - 30.0 °F 96% 29.98 in 1.0 mi Calm Calm - N/A   Overcast
8:59 AM 30.9 °F - 30.0 °F 96% 29.94 in - Calm Calm - N/A   Overcast
9:02 AM 32.0 °F - 30.0 °F 92% 29.95 in 1.0 mi Calm Calm - N/A   Overcast
9:37 AM 32.0 °F 28.7 °F 30.0 °F 92% 29.96 in 2.0 mi SSE 3.5 mph - N/A   Overcast
9:52 AM 32.0 °F 28.7 °F 28.9 °F 88% 30.00 in 2.0 mi SE 3.5 mph - N/A   Overcast
9:56 AM 32.0 °F - 28.9 °F 88% 29.96 in - Calm Calm - N/A   Overcast
10:05 AM 33.1 °F - 28.9 °F 85% 29.95 in 2.0 mi Calm Calm - N/A   Overcast
10:28 AM 33.1 °F 30.0 °F 28.0 °F 82% 29.94 in 2.0 mi Variable 3.5 mph - N/A   Haze
10:52 AM 33.1 °F - 28.0 °F 82% 29.97 in 2.0 mi Calm Calm - N/A   Haze
10:59 AM 33.1 °F 30.0 °F 28.0 °F 82% 29.93 in 4.0 mi NNE 3.5 mph - N/A   Haze
11:39 AM 33.1 °F - 28.0 °F 82% 29.93 in 4.0 mi Calm Calm - N/A   Haze
11:52 AM 33.1 °F - 28.0 °F 82% 29.97 in 4.0 mi Calm Calm - N/A   Haze
12:52 PM 34.0 °F 29.8 °F 28.0 °F 79% 29.93 in 7.0 mi NW 4.6 mph - N/A   Overcast
1:52 PM 35.1 °F 27.9 °F 27.0 °F 72% 29.92 in 8.0 mi WNW 9.2 mph - N/A   Overcast
2:52 PM 34.0 °F 24.6 °F 27.0 °F 75% 29.91 in - NNW 13.8 mph - 0.00 in Snow Light Snow
3:01 PM 33.1 °F 23.9 °F 28.0 °F 82% 29.88 in 1.8 mi NW 12.7 mph - 0.00 in Snow Light Snow
3:52 PM 30.9 °F 26.2 °F 30.0 °F 96% 29.93 in 2.0 mi NW 4.6 mph - 0.01 in Snow Light Snow
3:59 PM 32.0 °F 28.7 °F 30.2 °F 93% 29.89 in 2.5 mi NW 3.5 mph - N/A Snow Light Snow
4:06 PM 32.0 °F 28.7 °F 30.0 °F 92% 29.90 in 3.0 mi NW 3.5 mph - 0.00 in Snow Light Snow
4:52 PM 32.0 °F 26.4 °F 28.9 °F 88% 29.93 in 6.0 mi WNW 5.8 mph - 0.00 in   Overcast
5:22 PM 32.0 °F 23.0 °F 27.0 °F 82% 29.91 in 9.0 mi NW 11.5 mph - N/A   Overcast
5:47 PM 32.0 °F 23.6 °F 26.6 °F 80% 29.91 in 9.0 mi NW 10.4 mph - N/A   Overcast
5:52 PM 32.0 °F 23.6 °F 26.1 °F 79% 29.95 in 9.0 mi NW 10.4 mph - N/A   Overcast
6:52 PM 30.9 °F 21.7 °F 25.0 °F 79% 29.96 in 9.0 mi NW 11.5 mph - N/A   Overcast
7:49 PM 30.2 °F 21.3 °F 24.8 °F 80% 29.94 in 8.0 mi NW 10.4 mph - N/A   Overcast
7:52 PM 30.0 °F 20.5 °F 25.0 °F 82% 29.98 in 9.0 mi NW 11.5 mph - N/A   Overcast
8:52 PM 28.9 °F 18.6 °F 24.1 °F 82% 29.99 in 8.0 mi NW 12.7 mph 21.9 mph N/A   Overcast
9:52 PM 28.0 °F 18.1 °F 23.0 °F 81% 30.01 in 8.0 mi NW 11.5 mph - N/A   Overcast
10:52 PM 28.0 °F 15.7 °F 21.9 °F 78% 30.02 in 8.0 mi NW 17.3 mph 20.7 mph N/A   Overcast
11:52 PM 27.0 °F 17.3 °F 19.0 °F 72% 30.04 in 9.0 mi NW 10.4 mph - N/A   Overcast